Temperature
7 7 7 7 7 7 8 8 8 8 8 8 8 8 8 8 8 8 8 8 8 8 8 8 9 9 10 10 11 12 13 13 14 14 15 15 14 14 15 15 15 16 16
7 7 8 7 7 7 7 7 8 8 8 8 7 7 7 7 6 7 7 7 7 7 7 7 8 8 8 9 9 10 11 12 13 14 14 14 14 14 14 14 15 15 15
7 7 8 7 7 7 7 7 7 7 7 7 7 7 6 6 6 6 6 6 6 6 6 6 6 7 7 7 8 9 9 11 12 13 13 13 14 14 13 14 14 14 15
7 8 8 8 7 7 7 7 7 7 7 6 6 6 5 5 5 5 5 5 5 5 5 5 5 5 6 6 7 7 8 9 11 12 12 13 13 13 13 13 14 14 14
7 7 8 8 8 7 7 7 7 6 6 5 5 5 5 4 4 4 4 4 4 4 4 4 4 4 5 5 6 6 7 7 9 10 11 11 12 12 12 13 13 13 14
7 7 8 8 8 7 7 7 6 6 5 5 5 5 4 4 4 3 4 4 4 4 3 3 3 4 4 4 4 5 5 6 8 9 9 10 11 11 11 11 12 13 13
7 7 7 7 7 7 6 6 6 5 5 4 4 4 4 4 3 3 3 3 3 3 3 3 3 3 3 3 3 3 4 5 6 7 8 8 9 9 9 9 11 12 12
7 7 7 6 6 6 6 6 5 5 5 4 4 4 4 3 3 3 3 3 3 3 3 2 2 2 2 2 2 2 3 4 5 5 6 6 7 7 7 8 10 11 12
6 6 6 6 6 6 5 5 5 4 4 4 3 3 3 3 3 3 3 3 2 2 2 2 2 1 1 1 1 1 2 2 3 4 4 5 6 5 5 6 8 9 11
6 6 6 6 6 6 5 4 4 4 3 3 3 3 3 3 3 3 2 2 1 1 1 1 1 1 1 1 1 1 1 1 2 2 3 4 4 4 4 5 6 7 9
5 5 6 6 6 5 5 4 4 3 3 3 3 2 2 2 2 2 1 1 0 0 0 0 0 -0 0 0 0 -0 -0 0 0 1 1 2 2 3 3 4 4 6 7
5 5 5 5 5 5 5 4 3 3 2 2 2 1 1 1 1 1 1 0 -0 -0 -1 -1 -1 -1 -1 -1 -1 -1 -1 -1 -1 -1 -0 0 1 1 2 2 3 4 6
4 5 5 5 5 5 4 3 3 2 1 1 1 1 1 1 1 0 -0 -0 -1 -1 -2 -2 -2 -2 -2 -2 -2 -2 -2 -3 -2 -2 -2 -1 -0 0 1 1 2 3 4
4 4 4 4 4 4 4 3 1 1 1 0 0 -0 -0 -0 -1 -1 -1 -2 -2 -3 -3 -3 -3 -3 -3 -3 -4 -3 -3 -3 -3 -3 -3 -2 -2 -1 -0 1 1 2 3
4 3 4 4 4 4 3 2 1 0 0 -0 -0 -1 -1 -1 -2 -2 -2 -3 -4 -4 -4 -4 -5 -5 -5 -5 -5 -5 -5 -4 -4 -4 -4 -3 -3 -2 -1 -0 1 1 2
3 3 3 4 3 3 2 1 1 0 -1 -1 -1 -1 -2 -2 -3 -3 -3 -4 -5 -5 -5 -6 -6 -6 -6 -6 -6 -6 -6 -5 -5 -5 -5 -4 -4 -3 -2 -1 -0 1 1
3 3 3 3 3 2 2 1 0 -0 -1 -1 -1 -2 -3 -3 -3 -4 -4 -5 -6 -6 -6 -6 -7 -7 -7 -7 -7 -7 -7 -6 -6 -6 -5 -5 -4 -4 -3 -2 -1 -0 0
3 3 3 3 3 2 1 1 0 -1 -1 -1 -2 -2 -3 -3 -4 -5 -5 -6 -6 -7 -7 -7 -7 -8 -8 -8 -8 -8 -8 -7 -7 -6 -6 -5 -5 -4 -4 -3 -2 -1 -1
3 2 2 3 2 2 1 1 -0 -1 -1 -2 -2 -3 -3 -4 -5 -5 -6 -6 -7 -7 -8 -8 -8 -9 -9 -9 -9 -8 -8 -8 -7 -7 -6 -6 -5 -5 -4 -4 -3 -2 -2
2 2 2 2 2 2 1 1 0 -0 -1 -2 -2 -3 -4 -5 -5 -6 -6 -7 -8 -8 -8 -9 -9 -9 -9 -9 -9 -9 -9 -9 -8 -8 -7 -6 -6 -5 -5 -4 -4 -3 -3
2 2 1 2 2 1 1 1 0 -0 -1 -2 -3 -4 -4 -5 -6 -6 -7 -7 -8 -8 -9 -9 -9 -9 -9 -10 -10 -10 -9 -9 -9 -8 -8 -7 -7 -6 -6 -5 -5 -4 -4
2 2 1 1 1 1 1 0 -0 -1 -2 -3 -4 -4 -5 -6 -6 -7 -7 -8 -8 -9 -9 -9 -10 -10 -10 -10 -10 -10 -10 -10 -9 -9 -9 -9 -8 -8 -7 -6 -6 -5 -4
2 2 1 1 1 1 0 -0 -1 -2 -2 -3 -4 -4 -5 -6 -7 -7 -8 -8 -9 -9 -9 -10 -10 -10 -10 -10 -10 -10 -10 -10 -10 -10 -10 -10 -9 -8 -8 -7 -6 -6 -5
2 2 1 1 1 1 0 -0 -1 -2 -3 -3 -4 -5 -6 -6 -7 -8 -8 -9 -9 -9 -10 -10 -10 -10 -10 -10 -10 -10 -10 -11 -11 -11 -10 -10 -10 -9 -9 -8 -7 -6 -5
2 2 1 1 1 0 -0 -1 -2 -2 -3 -4 -5 -5 -6 -6 -7 -8 -8 -9 -9 -9 -10 -10 -10 -10 -10 -10 -10 -10 -11 -11 -11 -11 -11 -10 -10 -10 -9 -9 -8 -7 -6
2 2 1 1 0 0 -0 -1 -2 -3 -3 -4 -5 -5 -6 -7 -7 -8 -9 -9 -9 -10 -10 -10 -10 -10 -10 -10 -10 -10 -10 -11 -11 -11 -11 -11 -10 -10 -9 -9 -8 -7 -6
Wind_Speed
6 15 19 21 22 22 23 24 24 25 26 26 26 27 27 27 27 27 28 28 28 28 28 28 29 29 29 29 29 29 29 29 29 30 31 30 26 24 21 18 17 14 16
10 16 18 20 21 21 22 23 24 24 25 25 26 26 26 26 27 27 27 27 28 28 28 28 28 29 29 29 29 29 29 29 30 30 30 26 25 25 23 21 20 16 18
13 16 17 19 20 21 21 22 23 24 24 25 25 26 26 26 26 26 27 27 27 27 27 28 28 28 28 29 29 29 29 29 29 30 28 22 23 25 24 23 22 21 20
13 15 16 18 19 20 21 21 22 23 24 24 25 25 25 25 26 26 26 26 27 27 27 27 27 27 28 28 28 28 28 28 29 29 23 22 22 23 24 24 25 24 23
14 14 15 17 18 19 20 21 22 22 23 23 24 24 25 25 25 25 25 26 26 26 27 27 27 27 27 28 28 28 28 28 29 26 23 23 21 22 23 24 25 26 25
13 13 14 16 17 18 19 20 20 21 22 22 23 24 24 24 24 24 25 25 26 26 27 27 27 27 27 27 27 27 27 28 27 23 22 22 20 22 23 23 24 26 26
10 10 11 14 15 16 17 18 19 20 20 21 22 23 24 23 23 24 24 25 26 26 27 27 27 27 27 27 27 27 27 28 25 23 22 21 21 23 22 22 24 25 26
10 10 11 12 13 13 14 16 17 18 19 20 21 23 23 23 23 23 24 25 26 26 27 27 27 27 28 27 27 26 26 26 24 22 21 21 22 23 23 23 24 25 26
10 10 11 12 13 13 13 14 16 16 18 19 20 22 23 23 23 23 24 25 26 26 27 27 27 28 28 27 26 26 26 27 23 20 21 20 23 24 24 25 25 25 25
9 10 11 12 12 13 13 13 15 15 17 18 19 21 22 22 22 22 23 25 26 26 27 27 28 29 28 27 27 27 27 23 21 22 21 21 24 25 25 26 26 26 25
8 8 10 11 12 13 12 13 14 14 16 17 17 20 20 20 20 20 22 24 25 26 26 27 28 28 27 26 27 28 25 20 23 20 20 23 26 27 27 27 27 26 26
7 6 9 9 10 12 12 12 13 12 13 15 16 18 18 19 19 19 22 23 25 25 25 26 28 26 25 23 24 25 20 22 21 19 20 26 28 29 29 28 28 27 27
7 5 6 7 9 10 11 11 11 11 12 13 14 16 17 17 18 19 20 20 22 22 21 23 23 22 22 23 23 22 22 22 20 20 23 28 29 29 30 29 29 28 28
7 5 5 7 7 8 9 10 10 11 11 12 13 15 16 15 15 17 17 19 19 19 19 20 20 22 23 23 23 23 23 22 22 22 23 28 30 30 30 30 30 29 28
6 5 4 6 6 7 8 9 10 10 10 12 12 13 15 14 14 16 17 18 19 19 18 19 20 20 20 21 21 22 22 24 24 24 23 29 31 31 31 31 30 29 27
6 5 4 5 5 6 7 9 10 10 10 11 11 13 14 14 15 15 16 17 17 18 19 19 19 18 17 18 18 21 23 24 23 25 26 27 30 31 30 30 29 28 26
7 5 4 2 4 6 7 8 9 9 10 10 10 12 13 15 16 16 15 15 16 19 20 19 18 16 15 15 13 19 20 22 23 25 27 26 26 27 28 28 27 26 25
6 5 3 2 4 5 7 8 9 9 9 9 9 10 12 14 15 15 14 14 18 19 17 15 10 7 9 10 11 11 16 18 21 24 26 26 24 22 23 26 26 26 24
6 5 3 2 2 4 6 8 9 9 9 9 9 9 11 13 14 15 14 15 18 16 14 14 8 8 10 10 11 11 9 11 16 22 21 23 21 20 19 21 23 23 24
7 5 3 2 1 3 5 7 7 7 9 9 8 9 11 12 14 15 14 15 16 12 8 7 9 8 9 10 14 14 11 12 12 12 15 19 20 21 19 17 17 18 22
8 6 4 2 1 2 2 3 4 4 4 7 7 9 11 12 14 14 13 13 13 8 7 8 9 10 9 9 11 12 11 11 12 11 11 13 16 19 19 18 17 17 17
9 7 4 3 1 1 1 2 3 4 4 8 7 9 11 13 14 13 12 11 12 8 8 9 9 8 10 9 10 14 13 12 9 13 12 13 14 16 17 20 20 19 18
9 8 5 3 2 1 1 3 4 3 4 4 4 5 11 14 14 13 13 13 12 9 8 9 9 10 11 10 8 9 11 14 14 9 11 13 12 13 13 15 18 18 19
9 8 6 4 3 2 1 2 4 4 5 5 4 5 11 14 14 14 14 13 13 12 8 9 9 9 11 12 10 8 10 11 14 15 9 8 12 13 13 15 14 17 20
10 9 6 5 4 3 2 3 4 5 4 5 5 6 6 10 13 14 14 13 13 12 10 10 9 10 9 12 12 11 11 10 11 11 15 12 11 10 12 13 12 14 18
10 9 7 6 5 4 4 4 4 5 6 7 7 6 6 5 9 12 14 13 14 13 11 11 10 11 11 12 12 11 12 10 10 10 12 13 13 12 12 12 12 12 14
Wind_Direction
17 28 19 17 19 20 21 22 23 23 23 22 22 21 20 19 18 16 15 13 12 10 8 7 5 3 1 359 357 355 353 352 350 348 342 337 336 337 339 341 340 334 333
32 33 22 20 21 22 23 23 23 23 23 22 21 20 19 18 17 16 14 12 11 9 8 5 3 1 359 357 355 353 351 349 347 345 339 336 340 339 343 344 342 337 332
47 39 24 22 24 24 24 24 24 23 22 21 20 18 17 16 15 14 13 11 9 7 5 4 1 359 357 355 353 350 348 347 345 342 339 339 340 336 341 344 341 338 336
57 47 27 26 27 26 25 25 24 22 21 20 18 16 14 13 12 11 10 8 7 5 3 1 359 357 355 352 350 347 346 344 343 340 338 334 334 331 335 341 341 340 337
66 58 34 29 29 28 27 25 23 21 19 17 16 14 12 10 9 8 7 5 3 1 360 358 355 353 351 349 347 344 343 342 340 338 330 327 327 326 330 336 338 337 335
64 60 43 32 31 29 27 24 22 19 17 15 13 11 8 6 5 5 3 2 360 357 356 354 352 350 348 346 344 341 340 339 338 331 323 320 322 321 324 331 335 334 333
65 56 47 35 30 28 25 22 20 17 15 12 10 8 5 3 1 1 0 358 356 354 353 351 349 348 346 343 341 339 338 336 333 327 319 317 318 318 322 327 331 330 328
68 52 43 33 26 24 23 19 16 14 11 9 7 5 2 360 358 357 357 355 353 351 350 348 346 345 343 341 339 338 337 334 329 321 319 317 318 318 321 324 325 325 324
69 55 44 39 22 14 14 15 11 10 8 5 5 3 360 358 356 354 354 350 349 348 347 345 344 343 341 340 339 338 336 331 329 324 323 321 315 316 318 319 320 320 319
84 62 40 37 24 12 4 6 6 5 4 2 2 360 358 355 352 349 349 346 346 346 344 343 344 341 341 340 339 337 334 333 328 326 318 313 312 314 314 314 315 315 314
86 68 48 35 23 10 2 5 1 359 359 359 358 356 354 350 347 345 344 343 344 343 342 342 342 341 341 339 336 333 334 328 324 318 312 309 311 312 311 311 311 310 309
83 64 54 37 24 13 3 358 355 352 354 353 357 354 352 350 344 346 344 341 342 340 341 340 339 340 337 333 330 330 325 322 320 315 313 311 310 308 307 307 307 306 305
95 72 57 44 33 15 359 352 343 345 351 348 354 351 354 350 344 345 343 338 337 337 339 336 336 332 331 330 326 323 322 322 317 314 311 308 306 305 304 303 303 301 300
107 92 64 43 37 15 356 338 336 347 348 343 350 351 355 347 344 344 338 333 334 333 333 335 331 326 327 326 324 322 322 320 316 312 308 307 306 304 302 300 298 297 296
116 102 81 48 30 6 347 339 343 342 341 338 347 351 352 349 344 340 333 329 329 330 334 332 325 323 325 323 322 322 320 317 314 311 310 308 305 302 300 297 296 294 293
119 104 79 50 15 357 352 346 334 333 334 342 346 347 350 354 345 337 329 326 326 332 331 325 321 322 320 320 319 320 317 315 313 312 309 306 303 300 299 296 294 293 292
122 109 96 61 9 1 353 339 328 325 337 338 343 344 353 355 342 337 326 323 326 330 326 323 318 319 320 321 319 317 314 312 311 309 307 303 300 298 297 295 295 294 293
133 124 104 36 359 0 346 329 322 326 336 336 344 344 353 346 338 334 325 321 324 327 323 318 317 323 318 315 313 311 310 310 309 307 305 300 297 296 296 296 296 296 296
144 136 140 118 345 354 337 330 329 332 336 337 339 341 341 337 335 333 322 318 324 323 317 318 326 317 314 313 310 307 310 310 306 306 304 303 303 301 299 298 298 298 298
147 149 153 140 40 358 349 340 330 332 331 323 325 328 332 332 332 328 317 320 322 316 312 313 310 309 307 308 310 311 304 302 303 309 313 319 314 310 309 309 309 303 297
159 166 159 151 73 23 14 339 324 319 307 307 311 322 329 327 325 319 315 317 317 310 307 305 308 308 306 306 309 310 303 296 302 309 323 321 317 316 318 317 310 303 299
170 166 161 158 124 38 44 304 279 281 286 295 311 330 324 318 315 315 315 313 309 305 303 304 306 303 308 312 310 310 310 306 304 315 311 311 313 318 317 315 311 302 296
171 161 170 164 191 202 330 291 302 299 299 316 331 319 312 311 312 311 308 305 303 303 299 300 299 304 309 304 295 299 304 304 308 298 302 302 305 308 306 306 301 302 301
163 147 159 181 203 207 249 278 300 300 303 305 303 292 305 312 313 311 306 304 303 299 293 299 310 301 301 304 300 286 280 289 300 304 298 296 301 303 306 305 306 304 299
151 151 167 189 208 206 227 261 275 284 290 294 297 297 305 310 309 307 306 307 302 298 293 294 297 295 297 297 298 296 292 288 286 289 299 303 300 297 298 301 298 295 293
149 156 173 196 211 207 220 251 265 281 291 299 303 305 304 297 301 303 309 309 303 299 296 294 293 295 295 296 298 295 293 289 288 286 291 296 298 297 295 295 292 290 288
Height
1616 1613 1610 1608 1606 1603 1600 1598 1595 1592 1589 1587 1584 1581 1579 1576 1574 1571 1569 1567 1564 1562 1560 1557 1555 1553 1551 1550 1548 1547 1545 1544 1544 1543 1544 1544 1543 1543 1543 1542 1542 1542 1542
1615 1612 1609 1607 1605 1603 1600 1597 1594 1592 1589 1586 1583 1581 1578 1576 1573 1571 1568 1566 1563 1561 1558 1556 1554 1551 1549 1547 1545 1544 1543 1541 1540 1540 1540 1540 1540 1540 1540 1540 1539 1540 1540
1613 1611 1609 1607 1604 1602 1599 1597 1594 1591 1588 1586 1583 1580 1578 1575 1573 1570 1567 1565 1562 1560 1557 1555 1552 1550 1547 1545 1543 1541 1539 1538 1537 1536 1536 1536 1537 1537 1537 1536 1536 1536 1537
1611 1610 1608 1606 1603 1601 1599 1596 1594 1591 1588 1585 1583 1580 1577 1575 1572 1569 1567 1564 1561 1559 1556 1553 1551 1548 1546 1543 1541 1539 1537 1535 1533 1532 1532 1532 1532 1533 1533 1532 1533 1533 1533
1610 1608 1607 1605 1603 1600 1598 1595 1593 1590 1588 1585 1582 1579 1577 1574 1572 1569 1566 1563 1560 1557 1555 1552 1549 1547 1544 1541 1539 1536 1534 1531 1530 1529 1528 1528 1528 1528 1528 1528 1528 1529 1529
1609 1607 1606 1604 1602 1600 1597 1595 1592 1590 1587 1584 1582 1579 1576 1574 1571 1568 1565 1562 1559 1556 1553 1550 1547 1544 1542 1539 1536 1533 1531 1528 1526 1525 1524 1524 1523 1523 1523 1523 1523 1524 1525
1608 1606 1605 1603 1601 1599 1596 1594 1591 1588 1586 1583 1581 1578 1575 1573 1570 1567 1564 1561 1558 1555 1552 1548 1545 1542 1539 1536 1533 1531 1528 1525 1523 1521 1520 1519 1519 1519 1518 1518 1518 1519 1520
1606 1605 1604 1602 1600 1598 1595 1593 1590 1588 1585 1583 1580 1577 1574 1572 1569 1566 1563 1560 1556 1553 1550 1546 1543 1540 1536 1533 1530 1528 1525 1522 1519 1518 1516 1515 1514 1514 1513 1512 1512 1513 1514
1605 1604 1603 1601 1599 1597 1595 1592 1589 1587 1584 1582 1579 1576 1573 1571 1568 1565 1561 1558 1555 1551 1548 1544 1541 1537 1533 1530 1527 1524 1521 1518 1516 1514 1512 1511 1510 1510 1508 1507 1506 1506 1507
1604 1603 1601 1600 1598 1595 1593 1591 1588 1586 1583 1580 1578 1575 1572 1569 1566 1562 1559 1556 1552 1549 1545 1542 1538 1534 1530 1527 1524 1520 1517 1514 1512 1510 1508 1507 1506 1505 1503 1502 1500 1500 1501
1602 1601 1600 1598 1596 1594 1592 1590 1587 1584 1581 1579 1575 1572 1569 1566 1562 1559 1556 1553 1550 1546 1542 1539 1535 1531 1527 1523 1519 1516 1513 1510 1507 1505 1503 1502 1501 1500 1498 1497 1495 1494 1494
1601 1599 1598 1596 1594 1592 1590 1588 1585 1582 1579 1576 1573 1570 1566 1563 1560 1557 1553 1550 1546 1542 1539 1535 1531 1527 1522 1518 1515 1511 1508 1505 1502 1500 1498 1497 1496 1494 1493 1491 1489 1488 1488
1599 1598 1596 1594 1592 1590 1588 1585 1582 1579 1577 1574 1571 1567 1564 1561 1557 1554 1550 1546 1542 1538 1534 1530 1526 1522 1518 1515 1511 1507 1504 1501 1498 1495 1493 1491 1490 1489 1487 1485 1484 1482 1482
1596 1595 1594 1592 1591 1588 1586 1582 1580 1577 1574 1571 1568 1565 1561 1558 1554 1550 1546 1542 1538 1534 1531 1527 1522 1518 1515 1511 1507 1503 1500 1496 1493 1490 1487 1486 1484 1483 1481 1479 1478 1477 1476
1594 1593 1592 1590 1588 1586 1583 1580 1578 1575 1572 1569 1566 1562 1559 1555 1551 1547 1543 1539 1535 1531 1528 1523 1519 1515 1511 1507 1503 1500 1495 1492 1488 1485 1482 1480 1478 1476 1474 1473 1472 1471 1470
1592 1591 1590 1588 1586 1584 1581 1578 1575 1572 1570 1567 1564 1560 1556 1552 1548 1544 1539 1536 1532 1529 1525 1520 1516 1512 1507 1503 1499 1496 1491 1487 1483 1479 1476 1473 1471 1469 1468 1466 1465 1465 1464
1589 1588 1587 1586 1584 1581 1578 1575 1572 1570 1567 1564 1561 1558 1554 1550 1545 1541 1537 1533 1529 1526 1521 1517 1513 1509 1505 1500 1495 1491 1487 1483 1478 1474 1470 1467 1464 1462 1461 1460 1459 1458 1458
1586 1585 1584 1583 1581 1578 1576 1573 1570 1568 1565 1562 1559 1555 1551 1547 1543 1538 1534 1530 1526 1522 1518 1514 1510 1506 1501 1496 1491 1486 1483 1478 1474 1469 1465 1462 1459 1457 1455 1454 1453 1452 1451
1583 1582 1581 1580 1578 1576 1573 1570 1568 1565 1562 1559 1556 1552 1548 1544 1540 1536 1531 1527 1524 1519 1515 1512 1507 1503 1497 1492 1487 1483 1478 1474 1469 1465 1461 1457 1454 1452 1450 1448 1447 1445 1444
1579 1579 1578 1576 1575 1572 1570 1568 1565 1562 1559 1556 1553 1549 1545 1541 1537 1533 1528 1524 1520 1516 1512 1508 1504 1500 1495 1490 1484 1478 1473 1469 1465 1460 1456 1452 1449 1447 1445 1443 1441 1439 1438
1574 1575 1574 1573 1571 1569 1567 1564 1561 1559 1556 1553 1550 1546 1542 1538 1534 1530 1525 1521 1517 1513 1509 1505 1501 1496 1491 1486 1480 1473 1467 1464 1460 1456 1452 1447 1444 1442 1439 1437 1435 1433 1432
1570 1570 1570 1569 1567 1565 1563 1561 1558 1555 1552 1550 1547 1543 1540 1535 1531 1527 1523 1518 1514 1510 1506 1502 1498 1493 1488 1484 1478 1470 1462 1457 1454 1451 1447 1443 1439 1436 1433 1431 1429 1427 1426
1566 1566 1566 1565 1564 1562 1560 1557 1555 1552 1549 1547 1543 1540 1536 1532 1528 1524 1520 1515 1511 1507 1503 1499 1495 1490 1484 1479 1476 1471 1463 1453 1447 1443 1441 1438 1434 1431 1428 1425 1423 1422 1420
1560 1561 1561 1561 1560 1558 1556 1554 1551 1548 1546 1543 1539 1536 1532 1529 1525 1521 1517 1512 1508 1504 1500 1495 1491 1487 1482 1475 1470 1466 1461 1454 1447 1438 1434 1433 1430 1426 1423 1420 1418 1415 1414
1555 1556 1557 1557 1556 1554 1552 1550 1548 1545 1542 1539 1536 1532 1529 1525 1521 1517 1513 1509 1504 1500 1496 1492 1487 1482 1477 1472 1465 1459 1454 1449 1444 1439 1431 1427 1424 1421 1418 1415 1412 1410 1408
1550 1551 1553 1553 1552 1550 1549 1547 1544 1542 1539 1535 1532 1528 1525 1521 1517 1514 1510 1505 1501 1496 1492 1487 1483 1478 1472 1467 1461 1454 1449 1443 1438 1435 1429 1423 1418 1414 1412 1409 1406 1405 1403